Time,TemperatureF,DewpointF,PressureIn,WindDirection,WindDirectionDegrees,WindSpeedMPH,WindSpeedGustMPH,Humidity,HourlyPrecipIn,Conditions,Clouds,dailyrainin,SolarRadiationWatts/m^2,SoftwareType,DateUTC
2013-07-14 08:42:00,75.0,67.0,29.99,North,358,0.0,-999.0,77,-99.99,,,-99.99,39.000000,,2013-07-14 13:42:00,
2013-07-14 08:53:00,75.0,67.0,29.98,ESE,102,0.0,-999.0,77,-99.99,,,-99.99,40.000000,,2013-07-14 13:53:00,
2013-07-14 09:02:00,75.0,67.0,29.99,ESE,103,0.0,-999.0,77,-99.99,,,-99.99,51.000000,,2013-07-14 14:02:00,
2013-07-14 09:11:00,75.0,67.0,29.99,ESE,111,0.0,-999.0,77,-99.99,,,-99.99,72.000000,,2013-07-14 14:11:00,
2013-07-14 09:23:00,75.0,67.0,29.99,ESE,119,0.0,-999.0,77,-99.99,,,-99.99,86.000000,,2013-07-14 14:23:00,
2013-07-14 09:33:00,76.0,68.0,30.00,ESE,123,0.0,-999.0,77,-99.99,,,-99.99,111.000000,,2013-07-14 14:33:00,
2013-07-14 09:43:00,76.0,68.0,30.00,SE,127,0.0,-999.0,77,-99.99,,,-99.99,98.000000,,2013-07-14 14:43:00,
2013-07-14 09:53:00,76.0,68.0,30.01,SE,127,0.0,-999.0,76,-99.99,,,-99.99,84.000000,,2013-07-14 14:53:00,
2013-07-14 10:01:00,76.0,68.0,30.02,SE,128,0.0,-999.0,76,-99.99,,,-99.99,84.000000,,2013-07-14 15:01:00,
2013-07-14 10:12:00,76.0,68.0,30.01,ESE,123,0.0,-999.0,76,-99.99,,,-99.99,88.000000,,2013-07-14 15:12:00,
2013-07-14 10:22:00,76.0,68.0,30.02,ESE,112,0.0,-999.0,76,-99.99,,,-99.99,91.000000,,2013-07-14 15:22:00,
2013-07-14 10:32:00,76.0,68.0,30.02,West,272,0.0,-999.0,76,-99.99,,,-99.99,84.000000,,2013-07-14 15:32:00,
2013-07-14 10:42:00,76.0,68.0,30.03,WNW,290,0.0,-999.0,76,-99.99,,,-99.99,81.000000,,2013-07-14 15:42:00,
2013-07-14 10:53:00,76.0,68.0,30.03,WNW,290,0.0,-999.0,76,-99.99,,,-99.99,91.000000,,2013-07-14 15:53:00,
2013-07-14 11:01:00,76.0,68.0,30.02,WNW,290,0.0,-999.0,77,-99.99,,,-99.99,102.000000,,2013-07-14 16:01:00,
2013-07-14 11:11:00,76.0,68.0,30.04,WNW,283,0.0,-999.0,77,-99.99,,,-99.99,98.000000,,2013-07-14 16:11:00,
2013-07-14 11:22:00,76.0,68.0,30.04,West,272,0.0,-999.0,77,-99.99,,,-99.99,88.000000,,2013-07-14 16:22:00,
2013-07-14 11:32:00,76.0,68.0,30.04,West,277,1.0,-999.0,77,-99.99,,,-99.99,95.000000,,2013-07-14 16:32:00,
2013-07-14 11:43:00,76.0,68.0,30.04,WNW,288,0.0,-999.0,77,-99.99,,,-99.99,109.000000,,2013-07-14 16:43:00,
2013-07-14 11:53:00,76.0,68.0,30.05,WNW,290,0.0,-999.0,77,-99.99,,,-99.99,107.000000,,2013-07-14 16:53:00,
2013-07-14 12:02:00,76.0,68.0,30.05,NW,309,0.0,-999.0,77,-99.99,,,-99.99,102.000000,,2013-07-14 17:02:00,
2013-07-14 12:11:00,76.0,68.0,30.04,NW,305,0.0,-999.0,77,-99.99,,,-99.99,109.000000,,2013-07-14 17:11:00,
2013-07-14 12:22:00,76.0,69.0,30.03,NW,304,0.0,-999.0,78,-99.99,,,-99.99,102.000000,,2013-07-14 17:22:00,
2013-07-14 12:32:00,76.0,69.0,30.03,West,277,0.0,-999.0,78,-99.99,,,-99.99,104.000000,,2013-07-14 17:32:00,
2013-07-14 12:43:00,76.0,69.0,30.03,ESE,112,2.0,-999.0,78,-99.99,,,-99.99,105.000000,,2013-07-14 17:43:00,
2013-07-14 12:53:00,76.0,69.0,30.03,ESE,108,1.0,-999.0,78,-99.99,,,-99.99,104.000000,,2013-07-14 17:53:00,
2013-07-14 13:01:00,76.0,69.0,30.03,ESE,108,1.0,-999.0,78,-99.99,,,-99.99,104.000000,,2013-07-14 18:01:00,
2013-07-14 13:11:00,76.0,69.0,30.03,ESE,108,1.0,-999.0,78,-99.99,,,-99.99,104.000000,,2013-07-14 18:11:00,
2013-07-14 13:21:00,76.0,69.0,30.03,ESE,108,1.0,-999.0,78,-99.99,,,-99.99,104.000000,,2013-07-14 18:21:00,
2013-07-14 13:32:00,76.0,69.0,30.03,ESE,108,1.0,-999.0,78,-99.99,,,-99.99,104.000000,,2013-07-14 18:32:00,